Regional Weather Roundup
Issued by NWS

Home | Current Version | Previous Version | Graphics & Text | Print | Product List | Glossary On
Versions: 1 2 3 4 5 6 7 8 9 10 11 12 13 14 15 16 17 18 19 20 21 22 23 24 25 26 27 28 29 30 31 32 33 34 35 36 37 38 39 40 41 42 43 44 45 46 47 48 49 50
000
ASUS43 KIND 230109
RWRIN

WEATHER ROUNDUP FOR INDIANA
NATIONAL WEATHER SERVICE INDIANAPOLIS IN
900 PM EDT FRI MAY 22 2015

NOTE: "FAIR" INDICATES FEW OR NO CLOUDS BELOW 12,000 FEET WITH NO
SIGNIFICANT WEATHER AND/OR OBSTRUCTIONS TO VISIBILITY.

* - STATION DOES NOT REPORT WEATHER SUCH AS PRECIPITATION OR FOG.

+ - STATION NOT QUALITY CONTROLLED BY THE NATIONAL WEATHER SERVICE.
    USE DATA WITH CAUTION...ESPECIALLY DEWPOINT AND RELATIVE
    HUMIDITY OBSERVATIONS.

INZ001>003-010>013-019-020-230200-
NORTHWEST INDIANA

CITY           SKY/WX    TMP DP  RH WIND       PRES   REMARKS
GARY /AIRPORT/ CLOUDY    55  37  50 E9        30.27R
KNOX *+        CLOUDY    61  32  33 NE7       30.26R
LA PORTE +     CLOUDY    60  34  37 NE6       30.28S
MICHIGAN CITY+ CLOUDY    54  34  47 CALM      30.27F
MONTICELLO +   MOCLDY    64  37  36 NE7       30.24R
RENSSELAER +   MOCLDY    63  34  34 NE8       30.24S
VALPARAISO     CLOUDY    58  34  40 NE7       30.27R

$$

LMZ046-743>745-230200-
SOUTHERN LAKE MICHIGAN

STATION/POSITION TIME  TEMP    WIND        PRES    WAVE
                       AIR SEA DIR/SP/G            HT
                 (UTC) (F)     (DEG/KT/KT) (MB)    (FT)
BURNS HARBOR     0100   54      70/ 13/ 16 1025.1R
MICHIGAN CITY    0100   53      40/ 15/ 16   N/A
5NW MICH CITY    0100   53 51   80/ 10/ 14   N/A     2

$$

INZ004-005-014>016-021>024-230200-
NORTH CENTRAL INDIANA

CITY           SKY/WX    TMP DP  RH WIND       PRES   REMARKS
ELKHART        MOCLDY    61  30  31 N3        30.29S
GOSHEN         MOCLDY    59  34  39 N7        30.28R
LOGANSPORT +   MOCLDY    63  27  25 N8        30.26R
ROCHESTER +    CLOUDY    64  34  32 N6        30.27R
SOUTH BEND     MOCLDY    58  34  40 N6        30.30R
WARSAW +       MOCLDY    61  34  36 N7        30.27R

$$

INZ006>009-017-018-025>027-230200-
NORTHEAST INDIANA

CITY           SKY/WX    TMP DP  RH WIND       PRES   REMARKS
ANGOLA *+      CLEAR     61  34  36 NW5       30.27R
AUBURN +       PTCLDY    61  34  36 NW5       30.26S
FORT WAYNE     MOCLDY    61  43  51 N6        30.26R
HUNTINGTON +   MOCLDY    60  44  55 CALM      30.24S

$$

INZ028-029-035-036-043>045-051>053-230200-
WEST CENTRAL INDIANA

CITY           SKY/WX    TMP DP  RH WIND       PRES   REMARKS
CRAWFORDSVL +  PTCLDY    64  40  41 CALM      30.22S
GREENCASTLE +  PTCLDY    64  45  48 CALM      30.23S
LAFAYETTE      PTCLDY    64  37  36 NE9       30.22S
TERRE HAUTE    MOCLDY    67  52  58 S5        30.22R

$$

INZ030>032-037>040-046>048-054>057-064-065-230200-
CENTRAL INDIANA

CITY           SKY/WX    TMP DP  RH WIND       PRES   REMARKS
CP ATTERBURY + MOCLDY    64  50  59 SW5       30.24R
COLUMBUS       CLEAR     64  45  48 SW7       30.24R
FISHERS *+     PTCLDY    61  48  63 CALM      30.23
FRANKFORT +    PTCLDY    67  37  32 N8        30.26R
GREENWOOD *+   PTCLDY    68  43  40 CALM      30.24R
INDIANAPOLIS   MOCLDY    69  42  37 N3        30.22R
-EAGLE CREEK   PTCLDY    69  44  40 CALM      30.22S
KOKOMO *+      MOCLDY    66  39  37 N13       30.24R
MARION +       MOCLDY    65  36  33 NE6       30.25R
MT COMFORT *+  MOCLDY    63  34  34 NE3       30.24R
SHELBYVILLE    MOCLDY    69  48  47 NW3       30.23R
ZIONSVILLE +   PTCLDY    67  41  38 N3        30.24R

$$

INZ033-034-041-042-049-050-058-059-230200-
EAST CENTRAL INDIANA

CITY           SKY/WX    TMP DP  RH WIND       PRES   REMARKS
MUNCIE         MOCLDY    66  42  41 N5        30.24R

$$

INZ060-061-067>069-081>083-085>088-230200-
SOUTHWEST INDIANA

CITY           SKY/WX    TMP DP  RH WIND       PRES   REMARKS
EVANSVILLE     CLOUDY    68  54  60 SW5       30.25R
HUNTINGBURG *+ CLOUDY    66  52  59 SW6       30.25R
WASHINGTON +   CLOUDY    62  53  73 SW5       30.23R

$$

INZ062-063-066-070>080-084-089>092-230200-
SOUTH CENTRAL AND SOUTHEAST INDIANA

CITY           SKY/WX    TMP DP  RH WIND       PRES   REMARKS
BLOOMINGTON    MOCLDY    65  51  60 CALM      30.23S
MADISON *+     PTCLDY    64  45  48 CALM      30.26S
NORTH VERNON + MOCLDY    64  48  55 W3        30.24S
SEYMOUR +      MOCLDY    66  48  52 SW3       30.24R

$$



USA.gov is the U.S. government's official web portal to all federal, state and local government web resources and services.